カタログに戻る

STARLINK-36132

運用中通信VLEO
NORAD 67028·PAYLOAD·🇺🇸 United States

打ち上げ Dec 10, 2025 から Vandenberg Space Force Base

Loading…

次のパス (今後24時間)

TLE

最新Source: CelesTrak SupGP

元期: Sep 14, 2026, 21:37 UTC

1 67028C 25293AB  26257.90118056 -.00043160  00000+0 -36182-2 0  2570
2 67028  70.0022 337.5088 0003348 270.8248 201.5233 14.98338747    10

AllMySatでSTARLINK-36132をリアルタイム追跡

Download on the App Store